sat.trackr.live / text

‹ back to catalog

STARLINK-2291

NORAD 47862 · 2021-021C

PAYLOAD ACTIVE UNKNOWN

§ Identity

Operator
Country
US
Launch date
2021-03-14
Launch site
AFETR
Launch vehicle
Mass (kg)
RCS (m²)

Purposes: comms

External: N2YO · Heavens-Above · Gunter

§ Orbital elements

Epoch: 2026-05-24T19:01:00.059520Z

Period
92.87 min
Inclination
53.1573°
Eccentricity
0.0004234
Mean motion
15.50543323 rev/d
Perigee alt
412.3 km
Apogee alt
418.0 km
Semi-major
6,793.3 km
B*
1.1877e-3
RAAN
257.1581°
Arg perigee
339.4408°
Mean anomaly
20.6431°
Rev number
28,814

§ Raw data

STARLINK-22911 47862U 21021C   26144.79236180  .00069175  00000+0  11877-2 0  99992 47862  53.1573 257.1581 0004234 339.4408  20.6431 15.50543323288146

JSON: /api/v1/satellites/47862 · /tle

For live sub-satellite position, see the globe view (requires WebGL).

§ Visibility from observer

Set your observer location to see the next 7 days of passes ≥ 10°. The values pass through the URL so the page stays shareable.

No JS? Fill the form by hand. The geolocation button needs JavaScript.